Location: Étouvelles
(49.5207°N, 3.5808°E)
Time: 01:19:14
(UTC+00:00)

Cosmos 540 Rocket - Pass Details

Date: 28 September 2023
Orbit: 737 x 752 km, 74.1° (Epoch: 03 December)

Event Time Altitude Azimuth Distance (km) Brightness Sun altitude
Rises 22:20:01 0° 328° (NNW) 3,184 7.6 -40.0°
Reaches altitude 10° 22:22:36 10° 318° (NW) 2,258 6.5 -40.1°
Enters shadow 22:23:36 15° 312° (NW) 1,936 6.1 -40.2°
